Tongxin Jishu Shiyan 22

operational
NORAD ID: 66990 Int'l Des: 2025-290 Owner: ZZB/SAST Country: CN
MEOELLIPTICALHEO_ELLIPTICALSEMI_SYNC

Tongxin Jishu Shiyan 22について

説明を読み込み中...

リアルタイム位置

3D地球を読み込み中...

次回通過

高度履歴

Altitude vs Time

uPlot chart will show altitude changes over time

軌道要素

1 66990U 25290A 25344.29968569 -.00000038 00000-0 79788-1 0 9992
2 66990 20.1261 301.1464 6664534 180.6877 177.6237 2.15443148 32
Epoch: Dec 10, 2025 • Age: 90 hours

現在のステータス

高度 35142.4 km
速度 1.86 km/s
衛星直下点 3.28°N, 151.95°W
打ち上げ日 Dec 9, 2025
運用期間 5 days
タイプ other

技術仕様

分類 Payload
質量 5000.00 kg
乾燥質量 6000.00 kg
総質量 5000.00 kg
長さ 5.00 m
直径 4.00 m
スパン 30.00 m
形状 Box+ 2 pan+dish
製造者 SAST
バスタイプ TJSxx
フェーズステータス In Orbit
所有者/国 ZZB/SAST/CN

大規模コンステレーション

Loading constellations...